• Join FlightAware (Why Join?)
  • Login
  • US Flag GB Flag 
01:30 EST


 

Airport Tracker/Info


-or-


 

Live Flight TrackerFlight Track Log ✈ SWA470 ✈ 10-May-2013 ✈ KMDW - KDSM

Flight Track Log - Related Links

Times and Time Zones

All times are in EDT time to prevent confusion due to time zone crossing. See the SWA470 flight status page for this flight to view local times or setup timezone preferences in your user account.

Time Position Orientation Groundspeed Altitude Reporting Facility
EDT Latitude Longitude Course Direction KTS MPH feet Rate Location/Type
14:12 41.8000 -87.8000 236° Southwest 181 208 2,100  Level Chicago TRACON
14:13 41.7667 -87.8667 236° Southwest 237 273 4,700 2,387 Climbing Chicago TRACON
14:13 41.7597 -87.9061 257° West 229 264 5,800 3,064 Climbing Chicago Center
14:14 41.7297 -87.9956 246° West 254 292 9,500 3,000 Climbing Chicago Center
14:16 41.7567 -88.1111 287° West 278 320 12,000 2,129 Climbing Chicago Center
14:17 41.7525 -88.2294 267° West 317 365 13,900 2,565 Climbing Chicago Center
14:18 41.7472 -88.3600 267° West 350 403 17,300 3,145 Climbing Chicago Center
14:19 41.7419 -88.4944 267° West 362 417 20,400 3,000 Climbing Chicago Center
14:20 41.7381 -88.6631 268° West 378 435 23,500 2,661 Climbing Chicago Center
14:21 41.7347 -88.8094 268° West 394 453 25,900 2,323 Climbing Chicago Center
14:22 41.7322 -88.9606 269° West 406 467 28,300 2,516 Climbing Chicago Center
14:23 41.7294 -89.1089 269° West 402 463 31,100 1,776 Climbing Chicago Center
14:24 41.7267 -89.2544 269° West 395 455 32,000 432 Climbing Chicago Center
14:25 41.7214 -89.4294 268° West 396 456 32,000  Level Chicago Center
14:26 41.7172 -89.5811 268° West 407 468 32,000  Level Chicago Center
14:27 41.7133 -89.7311 268° West 405 466 32,000  Level Chicago Center
14:28 41.7097 -89.8825 268° West 408 470 32,000  Level Chicago Center
14:29 41.7044 -90.0397 267° West 409 471 32,000  Level Chicago Center
14:30 41.7003 -90.1908 268° West 409 471 32,000  Level Chicago Center
14:31 41.6944 -90.3436 267° West 412 474 32,000  Level Chicago Center
14:32 41.6881 -90.5256 267° West 409 471 32,000  Level Chicago Center
14:33 41.6817 -90.6767 267° West 409 471 32,000  Level Chicago Center
14:34 41.6772 -90.8267 268° West 406 467 32,000  Level Chicago Center
14:35 41.6714 -90.9756 267° West 402 463 32,000  Level Chicago Center
14:36 41.6650 -91.1253 267° West 404 465 32,000  Level Chicago Center
14:37 41.6581 -91.3047 267° West 405 466 32,000  Level Chicago Center
14:38 41.6511 -91.4531 266° West 403 464 32,000 -290 Level Chicago Center
14:39 41.6444 -91.6019 267° West 403 464 31,400 -1,016 Descending Chicago Center
14:40 41.6375 -91.7506 266° West 403 464 29,900 -1,984 Descending Chicago Center
14:41 41.6306 -91.8983 266° West 400 460 27,300 -2,613 Descending Chicago Center
14:42 41.6222 -92.0692 266° West 389 448 24,500 -2,419 Descending Chicago Center
14:43 41.6147 -92.2053 266° West 373 429 22,300 -2,177 Descending Chicago Center
14:44 41.6089 -92.3447 267° West 376 433 20,000 -2,177 Descending Chicago Center
14:46 41.6025 -92.4853 267° West 380 437 17,800 -2,160 Descending Chicago Center
14:47 41.5947 -92.6167 266° West 364 419 15,500 -2,442 Descending Chicago Center
14:47 41.5919 -92.6875 267° West 358 412 14,300 -2,541 Descending Minneapolis Center
14:48 41.5836 -92.8275 265° West 353 406 11,900 -1,597 Descending Minneapolis Center
14:49 41.5767 -92.9544 266° West 344 396 11,000 -919 Descending Minneapolis Center
14:50 41.5700 -93.0822 266° West 321 369 10,000 -923 Descending Minneapolis Center
14:51 41.5722 -93.1239 274° West 306 352 9,600 -871 Descending Minneapolis Center
14:51 41.5631 -93.1889 259° West 290 334 9,100 -896 Descending Minneapolis Center
14:52 41.5658 -93.2358 275° West 288 331 8,600 -968 Descending Minneapolis Center
14:52 41.5567 -93.2939 258° West 284 327 8,100 -1,125 Descending Minneapolis Center
14:52 41.5606 -93.3253 279° West 283 326 7,700 -968 Descending Minneapolis Center
14:53 41.5497 -93.4047 260° West 280 322 7,100 -808 Descending Minneapolis Center
14:54 41.5111 -93.4969 241° Southwest 284 327 6,300 -960 Descending Minneapolis Center
14:55 41.4564 -93.5861 231° Southwest 286 329 5,100 -1,113 Descending Minneapolis Center
14:56 41.4175 -93.6481 230° Southwest 283 326 4,000 -1,016 Descending Minneapolis Center
14:57 41.4350 -93.7372 285° West 236 272 3,000 -831 Descending Minneapolis Center
14:58 41.4906 -93.7381 359° North 159 183 2,200 -703 Descending Minneapolis Center
14:59 41.5139 -93.6997 51° Northeast 134 154 1,500 -595 Descending Minneapolis Center
15:01 41.5314 -93.6628 58° Northeast 134 154 900 -514 Descending Minneapolis Center